Satellite: OKEAN-4
Catalog number: 23317
Epoch time:      09154.73745541
Element set:    0926
Inclination:      082.5389 deg
RA of node:       347.0394 deg
Eccentricity:    0.0023695
Arg of perigee:   051.4469 deg
Mean anomaly:     308.8855 deg
Mean motion:   14.82700276 rev/day
Decay rate:       1.51e-06 rev/day^2
Epoch rev:           79037
Checksum:              328

Satellite: NOAA-14
Catalog number: 23455
Epoch time:      09154.65311087
Element set:    0641
Inclination:      098.9094 deg
RA of node:       232.3798 deg
Eccentricity:    0.0008741
Arg of perigee:   225.2665 deg
Mean anomaly:     134.7802 deg
Mean motion:   14.13761762 rev/day
Decay rate:      -2.43e-06 rev/day^2
Epoch rev:           74401
Checksum:              305

Satellite: NOAA-15
Catalog number: 25338
Epoch time:      09154.92054847
Element set:    0950
Inclination:      098.5837 deg
RA of node:       144.4194 deg
Eccentricity:    0.0011768
Arg of perigee:   095.8115 deg
Mean anomaly:     264.4397 deg
Mean motion:   14.24764355 rev/day
Decay rate:       2.28e-06 rev/day^2
Epoch rev:           57488
Checksum:              348

Satellite: RESURS
Catalog number: 25394
Epoch time:      09153.68746039
Element set:     227
Inclination:      098.3410 deg
RA of node:       186.7725 deg
Eccentricity:    0.0000524
Arg of perigee:   277.6463 deg
Mean anomaly:     082.4656 deg
Mean motion:   14.24183647 rev/day
Decay rate:       -1.1e-07 rev/day^2
Epoch rev:           56633
Checksum:              309

Satellite: FENGYUN1
Catalog number: 25730
Epoch time:      09154.92188398
Element set:    0774
Inclination:      098.7560 deg
RA of node:       125.4861 deg
Eccentricity:    0.0019763
Arg of perigee:   259.9178 deg
Mean anomaly:     099.9764 deg
Mean motion:   14.07928841 rev/day
Decay rate:      -8.51e-06 rev/day^2
Epoch rev:           51845
Checksum:              367

Satellite: OKEAN-0
Catalog number: 25860
Epoch time:      09154.52294934
Element set:    0694
Inclination:      097.7843 deg
RA of node:       136.2472 deg
Eccentricity:    0.0000840
Arg of perigee:   112.6108 deg
Mean anomaly:     247.5190 deg
Mean motion:   14.73575115 rev/day
Decay rate:        2.2e-07 rev/day^2
Epoch rev:           53113
Checksum:              286

Satellite: NOAA-16
Catalog number: 26536
Epoch time:      09154.97547728
Element set:    0427
Inclination:      099.1770 deg
RA of node:       158.3233 deg
Eccentricity:    0.0010030
Arg of perigee:   323.4612 deg
Mean anomaly:     036.5858 deg
Mean motion:   14.12521435 rev/day
Decay rate:       1.73e-06 rev/day^2
Epoch rev:           44843
Checksum:              300

Satellite: NOAA-17
Catalog number: 27453
Epoch time:      09154.65091127
Element set:    0436
Inclination:      098.4857 deg
RA of node:       214.1867 deg
Eccentricity:    0.0012069
Arg of perigee:   158.5951 deg
Mean anomaly:     201.5756 deg
Mean motion:   14.24066762 rev/day
Decay rate:       -5.7e-07 rev/day^2
Epoch rev:           36082
Checksum:              321

Satellite: NOAA-18
Catalog number: 28654
Epoch time:      09154.64742268
Element set:    0924
Inclination:      098.9065 deg
RA of node:       097.9911 deg
Eccentricity:    0.0015211
Arg of perigee:   044.3020 deg
Mean anomaly:     315.9345 deg
Mean motion:   14.11260686 rev/day
Decay rate:      -1.99e-06 rev/day^2
Epoch rev:           20804
Checksum:              312

Satellite: NOAA-19
Catalog number: 33591
Epoch time:      09154.69540111
Element set:    0126
Inclination:      098.7452 deg
RA of node:       100.8068 deg
Eccentricity:    0.0013128
Arg of perigee:   283.2472 deg
Mean anomaly:     076.7226 deg
Mean motion:   14.10962206 rev/day
Decay rate:       2.95e-06 rev/day^2
Epoch rev:           01653
Checksum:              289

/EX
SB KEPS @ AMSAT  $ORB09155.M
Orbital Elements  09155.MISC

HR AMSAT ORBITAL ELEMENTS FOR MANNED AND MISCELLANEOUS SATELLITES
FROM WA5QGD FORT WORTH,TX June 4, 2009
Send Subscribe/unsubscribe to KEPS at 
http://www.amsat.org/mailman/listinfo/keps
BID: ORB09155.M
TO ALL RADIO AMATEURS BT

Satellite: HUBBLE
Catalog number: 20580
Epoch time:      09154.14808949
Element set:    0403
Inclination:      028.4700 deg
RA of node:       193.9309 deg
Eccentricity:    0.0003605
Arg of perigee:   133.1182 deg
Mean anomaly:     226.9657 deg
Mean motion:   15.00806014 rev/day
Decay rate:       2.54e-06 rev/day^2
Epoch rev:           84774
Checksum:              284

Satellite: ISS
Catalog number: 25544
Epoch time:      09154.91441992
Element set:    0971
Inclination:      051.6417 deg
RA of node:       015.0105 deg
Eccentricity:    0.0009514
Arg of perigee:   076.7415 deg
Mean anomaly:     023.9527 deg
Mean motion:   15.73350643 rev/day
Decay rate:     1.5273e-04 rev/day^2
Epoch rev:           60386
Checksum:              293

Satellite: CO-58
Catalog number: 28895
Epoch time:      09154.90342595
Element set:    0321
Inclination:      098.0634 deg
RA of node:       045.8914 deg
Eccentricity:    0.0018597
Arg of perigee:   032.9991 deg
Mean anomaly:     327.2373 deg
Mean motion:   14.59771502 rev/day
Decay rate:        4.0e-08 rev/day^2
Epoch rev:           19179
Checksum:              342

